SCP
0 -0 0 0 0 -0 -0 0 0 0 0 0 0 0 0 0 -0 0 -0 -0 -0 -0 -0 -0 -0 -0 -0 0 0 0 0 0 0 0 0 0 0 0 0 0 0 0 0 0 0 0 0 0 0
-0 -0 0 0 0 -0 0 0 0 0 0 -0 -0 -0 -0 -0 -0 -0 -0 0 0 -0 0 0 -0 -0 -0 -0 0 0 0 0 0 0 0 0 0 0 0 0 0 0 0 0 0 0 0 0 0
0 0 0 0 0 0 0 0 0 0 0 0 0 -0 -0 -0 -0 -0 -0 0 -0 -0 0 -0 -0 -0 -0 0 0 0 0 0 0 0 0 0 0 0 0 0 0 0 0 0 0 0 0 0 0
0 0 0 0 0 0 0 0 -0 0 0 0 -0 -0 -0 -0 -0 -0 0 0 0 0 0 0 -0 -0 -0 0 0 0 0 0 0 0 0 0 0 0 0 0 0 0 0 0 0 0 0 0 0
0 0 0 -0 0 0 0 0 -0 0 0 -0 0 -0 0 0 -0 0 -0 -0 0 0 0 -0 0 0 0 0 0 0 0 0 1 0 0 0 1 0 0 0 0 0 0 0 0 0 0 0 0
0 -0 0 0 -0 0 0 0 0 0 0 -0 -0 0 0 0 -0 0 0 0 0 0 0 0 0 0 0 1 1 1 1 1 1 0 0 0 0 0 0 0 0 0 0 0 0 0 0 0 0
0 -0 0 0 -0 -0 0 0 0 0 0 0 0 -0 0 0 -0 0 -0 0 0 0 -0 0 0 0 0 1 1 1 1 1 1 1 0 0 0 0 0 0 0 0 0 0 0 0 0 0 0
0 0 0 0 0 0 -0 0 0 0 0 0 0 0 0 0 0 0 0 0 -0 0 0 0 0 0 0 1 0 0 1 1 0 0 0 0 0 0 0 0 0 0 0 0 0 0 0 0 0
0 0 0 0 0 0 -0 0 0 0 -0 0 0 -0 0 0 0 0 0 0 0 0 0 0 0 0 0 0 0 0 0 0 0 1 0 0 0 0 0 -0 -0 -0 0 0 -0 0 0 0 0
-0 0 0 0 0 0 -0 -0 0 0 -0 -0 -0 -0 0 -0 0 0 0 0 0 0 0 -0 0 0 0 0 0 0 0 0 0 0 0 0 0 0 -0 -0 -0 0 0 0 0 0 0 0 0
-0 -0 0 0 0 0 -0 -0 0 0 0 0 0 0 0 0 0 0 0 0 0 0 0 0 0 0 0 0 0 0 0 0 0 0 0 0 0 0 0 0 0 0 0 0 0 0 0 -0 -0
-0 -0 -0 -0 -0 0 0 -0 0 0 0 -0 0 0 0 0 0 0 0 0 0 0 0 0 0 0 0 0 0 0 0 0 0 0 0 0 0 0 0 0 0 0 0 0 0 0 0 0 0
0 -0 0 -0 0 0 0 0 0 -0 -0 -0 -0 0 0 0 0 0 0 0 0 0 0 0 0 0 0 0 0 0 0 0 0 0 0 0 0 0 0 0 0 0 0 0 0 0 0 0 0
-0 -0 -0 -0 0 0 0 0 -0 -0 -0 -0 -0 -0 0 0 0 0 0 0 0 0 0 0 0 0 0 0 0 0 0 0 0 0 0 0 0 0 0 0 0 0 0 0 0 0 0 0 0
0 0 -0 0 0 -0 0 -0 -0 -0 -0 -0 -0 -0 0 0 0 0 0 0 0 0 0 0 0 0 0 0 0 0 0 0 0 0 0 0 0 0 0 0 0 0 0 0 0 0 0 0 0
0 0 0 0 0 0 0 0 0 -0 0 -0 0 0 0 0 0 0 0 0 0 0 0 0 0 0 0 0 0 0 0 0 0 0 0 0 0 -0 0 0 0 0 0 0 0 0 0 0 0
-0 -0 0 0 0 0 0 0 0 0 -0 0 0 0 0 0 0 0 0 0 0 -0 -0 -0 0 0 0 0 0 0 0 0 0 0 0 0 0 0 0 0 0 0 0 0 0 0 0 0 0
-0 -0 0 0 0 0 0 0 0 0 0 0 0 0 0 0 0 0 0 0 0 0 -0 -0 -0 -0 -0 0 0 0 0 0 0 0 0 0 0 0 0 0 0 0 0 0 0 0 0 0 0
0 0 0 0 0 0 0 0 -0 0 0 0 0 0 0 0 0 0 0 0 0 0 0 -0 -0 -0 -0 0 0 0 0 0 0 0 0 0 0 0 0 0 0 -0 0 0 0 0 0 0 0
-0 0 0 0 0 0 0 0 0 0 0 -0 0 0 0 0 0 0 0 0 0 0 0 0 -0 -0 -0 -0 0 0 0 0 0 0 0 0 0 0 0 0 0 0 0 0 0 0 0 0 0
-0 0 0 0 0 0 0 0 0 0 0 -0 -0 -0 0 0 0 0 0 0 0 0 0 0 0 -0 -0 0 0 0 0 0 0 0 0 0 0 0 0 0 0 0 0 0 0 -0 -0 0 0
0 -0 0 -0 0 0 0 0 0 0 0 0 -0 -0 0 0 0 0 0 0 0 0 0 0 0 -0 0 0 0 0 0 0 0 0 0 0 0 0 0 0 0 0 0 0 0 0 0 0 0
0 0 0 0 0 0 0 0 0 0 0 0 0 0 0 0 0 0 0 0 0 0 0 0 0 0 0 0 0 0 0 0 0 0 0 0 0 0 0 0 0 0 0 0 0 0 0 0 0
0 0 0 0 0 0 0 0 0 0 0 0 0 0 0 0 0 0 0 0 0 0 0 0 0 0 0 0 0 0 0 0 0 0 0 0 0 0 0 0 0 0 0 0 0 0 0 0 0
0 0 0 0 0 0 0 0 0 0 0 0 0 0 0 0 0 0 0 0 0 0 0 0 0 0 0 0 0 0 0 0 0 0 0 0 0 0 0 0 0 0 0 0 0 0 0 0 0
0 0 0 0 0 0 0 0 0 0 0 0 0 0 0 0 0 0 0 0 0 0 0 0 0 0 0 0 0 0 0 0 0 0 0 0 0 0 0 0 0 0 0 0 0 0 0 0 0
0 0 0 -0 0 0 0 0 0 0 0 0 0 0 0 0 0 0 0 0 0 0 0 0 0 0 0 0 0 0 0 0 0 0 0 0 0 0 0 0 0 0 0 0 0 0 0 0 0
-0 0 0 0 0 0 0 0 0 0 0 0 0 0 0 0 0 0 0 0 0 0 0 0 0 0 0 0 0 0 0 0 0 0 0 0 0 0 0 0 0 0 0 0 0 0 0 0 0
0 0 0 0 0 0 0 0 0 0 0 0 0 0 0 0 0 0 0 0 0 0 0 0 0 0 0 0 0 0 0 0 0 0 0 0 0 0 0 0 0 0 0 0 0 0 0 0 0
0 0 0 0 0 0 0 0 0 0 0 0 0 0 0 0 0 0 0 0 0 0 0 0 0 0 0 0 0 0 0 0 0 0 0 0 0 0 0 0 0 0 0 0 0 0 0 0 0
Wind_Speed_500mb
22 20 12 6 7 10 8 2 6 18 17 43 39 26 21 21 9 11 36 26 26 22 18 15 11 9 9 8 6 3 2 2 4 6 8 8 7 6 5 3 2 3 4 6 7 10 13 15 19
28 41 11 11 10 11 10 1 22 16 34 63 58 59 51 21 38 35 45 38 23 18 17 13 10 7 4 2 2 3 6 8 10 11 13 14 15 14 12 10 8 6 5 4 5 7 8 9 12
23 35 16 9 7 4 9 6 20 37 47 45 20 34 15 25 35 28 35 27 16 15 12 9 8 6 6 8 10 11 14 15 17 18 19 21 22 22 19 17 15 15 14 13 11 10 8 7 7
2 9 15 10 5 6 7 6 39 37 35 33 39 19 27 27 30 29 26 19 23 23 20 16 8 8 9 10 12 15 19 22 24 26 27 28 28 28 26 24 23 24 22 22 20 17 14 12 9
6 12 10 10 16 10 18 23 17 22 28 56 52 29 40 38 36 32 26 27 26 15 12 7 1 7 12 15 13 15 20 24 28 32 30 34 32 30 31 31 33 33 32 31 28 25 22 18 15
1 6 8 11 7 9 8 37 52 33 50 53 48 39 22 39 28 22 18 22 18 10 6 4 3 2 10 17 17 14 19 23 36 33 34 37 34 31 35 36 38 39 39 38 37 35 31 28 24
13 8 10 16 11 9 8 22 31 21 15 26 43 11 22 36 29 29 17 22 13 7 6 12 13 6 17 16 23 15 21 29 37 36 38 31 32 33 32 34 36 38 35 42 46 46 43 37 35
4 13 2 6 14 11 19 14 39 35 22 23 37 9 14 45 43 34 25 20 24 4 9 11 15 14 15 11 19 15 21 32 33 31 32 34 28 25 27 30 35 47 39 49 44 46 47 46 42
17 9 5 15 18 11 23 11 30 38 45 13 8 45 48 46 35 19 8 13 13 18 15 14 12 11 8 2 11 15 20 27 29 34 32 30 30 25 26 40 44 41 46 45 50 51 48 47 45
18 9 17 7 20 11 3 4 25 23 54 31 58 49 38 35 30 10 21 25 19 7 21 30 29 24 12 16 19 15 20 23 25 24 24 30 30 32 35 41 46 41 45 50 47 40 44 42 49
7 10 18 14 29 36 17 3 8 50 23 30 47 41 40 5 24 24 24 22 23 23 26 33 30 16 21 24 23 18 19 28 29 35 30 35 30 24 36 42 43 41 35 42 50 39 21 40 35
26 47 43 31 38 21 4 14 42 56 35 61 41 41 31 33 33 35 30 24 28 26 27 18 11 17 18 17 18 20 24 26 29 11 38 20 20 22 29 34 35 30 23 21 22 25 28 36 32
30 16 44 52 34 24 14 35 26 50 54 48 51 47 41 41 38 33 26 22 16 19 11 15 20 22 17 20 26 30 27 25 25 22 18 16 14 21 26 33 36 37 28 15 13 18 31 21 27
30 34 38 31 45 33 31 49 31 46 48 56 50 46 42 43 38 32 23 16 10 7 8 18 25 23 18 26 24 30 32 24 21 20 24 26 29 30 37 38 35 32 28 20 14 8 21 27 23
41 19 11 21 27 14 52 53 45 55 46 38 31 46 42 42 34 28 24 22 19 22 27 33 30 23 21 23 23 19 22 20 22 20 25 30 35 38 45 43 36 26 26 16 12 14 11 11 26
9 10 10 21 8 18 30 14 31 34 34 44 42 28 43 40 32 26 24 21 22 28 41 40 34 26 24 23 20 21 25 24 25 27 32 37 39 42 38 47 39 32 25 23 19 15 13 9 8
11 6 7 8 24 11 17 10 10 36 11 29 34 27 32 39 30 23 22 23 29 35 42 48 48 45 43 21 19 25 23 27 34 36 36 38 46 48 49 51 50 39 26 20 18 18 16 17 14
10 8 2 12 10 41 33 20 20 30 18 15 18 14 20 30 20 18 18 22 26 34 45 45 53 56 64 35 12 17 27 30 23 29 24 31 37 38 42 43 36 34 30 27 27 28 22 23 26
6 14 19 20 18 19 18 23 21 28 16 15 27 21 22 19 19 14 12 16 24 32 37 42 52 62 64 47 28 25 34 27 26 38 33 29 30 42 46 43 37 32 30 29 30 29 26 23 22
24 18 12 11 6 19 15 21 15 12 10 15 27 22 39 27 26 18 9 13 20 27 32 42 48 60 59 47 34 27 30 29 30 27 25 31 38 43 42 41 38 36 33 30 28 29 28 23 24
11 19 12 18 12 4 21 9 10 4 9 11 9 38 34 27 32 19 12 14 16 23 31 35 44 57 54 53 41 27 28 31 29 31 29 32 36 39 39 38 38 36 34 31 26 25 25 23 18
8 12 39 34 8 4 7 5 2 4 6 15 19 39 31 25 30 23 17 18 13 25 22 29 39 51 51 55 45 38 39 42 39 32 32 34 35 40 43 42 42 40 36 36 25 20 21 20 19
11 8 16 9 14 9 14 6 6 6 3 10 22 29 26 37 33 26 18 12 15 15 17 24 37 49 47 54 42 36 37 38 35 34 35 37 39 42 47 49 43 40 38 32 26 21 20 19 19
19 20 19 9 7 7 8 4 8 10 11 6 16 17 45 49 38 27 20 10 10 9 15 25 36 45 44 51 39 35 39 40 41 42 41 42 44 49 50 53 40 35 35 33 27 23 20 20 18
10 12 6 6 9 5 5 6 15 8 12 14 12 58 62 51 40 29 21 10 9 10 16 25 35 42 42 46 39 31 36 42 43 43 44 45 51 57 51 50 42 36 34 32 30 26 23 22 23
6 12 10 8 8 5 10 6 10 7 27 18 31 60 55 47 38 27 15 13 9 10 16 25 33 40 38 41 42 29 33 37 41 44 44 41 46 52 49 44 39 36 35 34 34 31 29 29 24
6 6 8 13 8 9 5 10 9 12 12 16 31 55 56 48 28 20 18 14 9 12 15 24 33 35 33 41 40 30 31 36 34 41 42 40 42 46 44 42 35 35 34 37 38 36 32 27 24
6 4 10 8 5 3 5 7 8 5 10 16 29 53 51 37 34 26 18 11 10 13 17 23 29 28 27 35 46 30 32 36 34 37 41 36 43 49 38 44 33 33 33 39 43 40 32 26 25
9 8 11 9 8 9 5 11 12 15 15 18 19 53 53 44 39 31 20 11 7 8 13 22 27 21 25 28 42 38 36 34 35 38 40 35 42 50 47 45 39 37 36 37 43 43 38 33 28
9 12 10 10 7 5 9 9 7 21 29 45 34 58 53 47 42 30 20 12 7 11 11 18 26 14 22 22 32 37 39 37 34 35 41 38 42 45 45 47 41 38 39 38 40 42 38 36 33
Wind_Direction_500mb
63 55 41 77 50 61 298 29 144 78 55 81 86 75 78 75 108 145 151 141 123 119 117 122 123 120 124 135 151 174 205 253 255 251 246 248 246 241 231 211 172 109 81 72 69 66 61 60 61
44 29 33 59 72 46 317 315 70 95 120 96 89 82 71 60 102 127 146 141 106 110 111 119 125 123 123 146 234 284 300 302 289 278 269 261 258 255 251 248 252 267 280 303 332 350 15 34 50
58 39 32 77 32 354 293 326 109 96 101 100 91 69 75 101 119 130 122 110 105 112 99 88 69 47 14 349 331 326 317 310 299 288 275 268 264 260 258 257 254 255 262 269 273 284 307 326 3
102 71 62 59 340 320 326 298 112 106 89 87 99 67 94 97 120 120 118 97 121 113 73 49 33 15 358 332 323 330 319 314 309 295 287 283 278 275 271 265 262 259 258 261 264 267 277 292 307
262 113 59 53 28 276 332 33 39 87 87 87 95 96 80 102 130 130 134 147 153 127 107 97 186 355 354 338 314 325 322 320 311 303 299 293 285 281 275 269 266 263 260 260 261 267 271 279 286
325 98 103 154 232 248 278 46 66 57 97 99 97 106 74 99 124 117 162 179 162 156 131 55 35 316 304 314 320 315 324 326 325 312 305 291 284 278 279 277 274 273 273 273 269 266 266 269 270
160 89 189 131 181 311 268 89 67 43 61 87 131 76 113 109 102 104 106 158 160 122 35 339 323 295 305 324 310 313 328 334 337 331 325 306 290 284 284 287 287 284 282 280 275 269 263 261 262
137 111 189 163 166 232 244 143 105 111 100 117 131 137 145 117 108 99 98 94 82 61 30 341 319 340 320 305 304 311 338 352 357 348 342 325 309 293 295 287 298 287 280 279 273 276 272 267 259
231 92 144 186 160 223 254 114 102 83 69 119 149 138 128 136 136 98 77 55 88 78 49 20 1 318 316 354 336 324 345 352 349 351 340 333 307 290 285 292 300 282 278 292 279 278 272 275 267
155 121 191 128 164 188 184 129 156 114 89 82 100 105 117 154 155 41 75 83 77 46 32 24 28 15 13 27 354 341 333 327 334 337 333 322 312 300 291 297 295 297 275 284 291 260 263 264 273
116 106 119 141 168 152 181 74 80 96 99 133 120 113 138 164 111 91 80 84 54 43 43 26 21 27 31 23 354 339 319 305 313 325 334 325 327 304 298 303 309 302 293 286 283 273 242 262 268
95 133 147 167 158 144 221 184 72 101 121 127 114 120 154 120 103 90 84 75 71 56 41 37 15 11 20 13 355 347 339 347 338 318 311 315 312 307 326 329 331 330 331 331 295 252 217 241 261
102 136 143 158 144 140 86 42 81 105 130 117 115 121 115 109 103 96 84 79 84 74 36 3 346 349 352 354 23 22 14 351 346 7 2 359 0 358 351 345 338 335 334 347 357 256 255 249 256
175 152 153 143 109 121 70 33 45 121 113 106 97 100 105 106 103 95 88 84 80 83 15 339 337 345 338 21 33 34 38 42 46 40 34 2 6 354 342 342 341 339 336 340 331 327 242 257 248
127 98 112 144 122 110 78 28 24 9 83 61 103 109 106 109 108 107 86 69 49 31 6 353 344 344 340 6 31 33 57 57 54 43 30 15 360 347 342 335 331 333 322 338 350 324 305 256 243
91 56 77 9 124 49 93 111 136 52 36 57 71 97 117 119 126 109 76 60 43 20 16 15 7 4 360 4 48 85 64 56 40 24 15 11 1 358 360 10 354 333 325 305 325 344 339 321 285
9 97 74 25 5 106 54 169 162 115 207 108 80 107 122 133 126 97 67 52 29 20 20 21 27 35 30 26 56 82 71 44 39 40 33 32 25 28 20 7 8 9 359 357 338 319 320 304 293
229 84 263 118 40 86 94 133 140 141 159 122 128 150 119 146 124 90 58 36 30 25 19 24 25 23 17 31 70 71 62 62 55 50 55 42 27 18 6 7 8 6 14 12 4 350 331 322 300
120 97 107 113 120 69 98 122 147 159 150 192 160 150 157 163 125 114 65 51 39 30 26 27 21 22 18 33 66 70 63 54 53 56 64 40 22 16 11 21 21 21 10 5 4 3 8 4 342
87 107 100 66 359 104 157 150 158 151 176 193 145 151 167 160 159 145 79 68 47 36 33 22 21 24 23 36 44 51 60 56 52 44 36 23 14 11 15 17 15 12 10 10 8 358 357 13 14
136 149 172 146 147 110 160 134 155 109 173 181 186 163 176 175 166 148 137 91 70 41 25 18 23 23 25 26 28 48 52 49 45 37 30 21 15 15 14 9 7 6 1 356 354 352 349 355 14
112 165 142 157 159 152 77 119 160 191 238 232 215 179 194 174 162 150 137 117 55 23 25 15 21 22 26 24 32 39 46 48 44 43 38 30 23 17 16 11 4 3 9 8 354 346 352 346 342
186 105 116 113 82 77 343 80 200 306 127 197 204 204 213 174 160 141 117 67 26 29 15 17 21 24 28 23 36 47 52 43 38 37 38 35 23 16 10 10 6 6 11 13 21 14 8 352 338
110 84 65 65 101 50 270 96 297 166 177 170 179 139 155 157 150 132 105 77 51 68 28 18 20 28 29 24 35 44 39 36 39 35 30 24 20 12 11 5 9 10 15 19 19 20 19 13 356
93 82 20 349 23 222 353 26 241 187 188 184 140 145 155 151 144 131 120 107 100 60 24 22 24 31 28 24 29 41 41 37 33 25 18 16 15 13 13 11 14 17 18 19 20 13 7 359 357
85 136 152 237 171 222 2 265 269 256 174 167 136 154 153 148 143 129 111 101 93 40 35 21 22 28 25 22 25 37 36 33 31 23 15 14 16 17 12 12 17 17 14 13 13 11 11 8 5
325 345 192 111 65 88 240 282 351 67 92 154 158 155 154 148 137 132 129 115 77 47 40 20 12 21 25 21 29 31 31 27 25 22 18 17 16 12 7 9 7 12 13 18 18 14 12 11 20
84 230 30 11 98 63 290 291 236 173 174 165 178 150 148 145 146 148 144 118 69 38 16 4 11 27 30 27 27 31 28 25 26 20 15 16 14 9 12 8 13 19 18 17 17 16 20 17 23
11 20 55 105 129 151 167 265 204 190 163 174 158 154 156 157 158 151 143 126 61 18 4 6 12 38 34 30 28 31 24 23 23 22 19 21 14 16 17 11 22 22 22 19 22 29 29 27 25
163 168 126 113 275 100 130 273 343 175 179 174 161 160 162 165 158 149 142 128 68 19 13 10 12 44 37 30 28 23 22 21 20 21 23 22 17 23 23 20 20 23 23 22 25 24 21 24 28
Wind_Speed_850mb
22 20 12 6 7 10 8 2 6 18 17 43 39 26 21 21 9 11 36 26 26 22 18 15 11 9 9 8 6 3 2 2 4 6 8 8 7 6 5 3 2 3 4 6 7 10 13 15 19
28 41 11 11 10 11 10 1 22 16 34 63 58 59 51 21 38 35 45 38 23 18 17 13 10 7 4 2 2 3 6 8 10 11 13 14 15 14 12 10 8 6 5 4 5 7 8 9 12
23 35 16 9 7 4 9 6 20 37 47 45 20 34 15 25 35 28 35 27 16 15 12 9 8 6 6 8 10 11 14 15 17 18 19 21 22 22 19 17 15 15 14 13 11 10 8 7 7
2 9 15 10 5 6 7 6 39 37 35 33 39 19 27 27 30 29 26 19 23 23 20 16 8 8 9 10 12 15 19 22 24 26 27 28 28 28 26 24 23 24 22 22 20 17 14 12 9
6 12 10 10 16 10 18 23 17 22 28 56 52 29 40 38 36 32 26 27 26 15 12 7 1 7 12 15 13 15 20 24 28 32 30 34 32 30 31 31 33 33 32 31 28 25 22 18 15
1 6 8 11 7 9 8 37 52 33 50 53 48 39 22 39 28 22 18 22 18 10 6 4 3 2 10 17 17 14 19 23 36 33 34 37 34 31 35 36 38 39 39 38 37 35 31 28 24
13 8 10 16 11 9 8 22 31 21 15 26 43 11 22 36 29 29 17 22 13 7 6 12 13 6 17 16 23 15 21 29 37 36 38 31 32 33 32 34 36 38 35 42 46 46 43 37 35
4 13 2 6 14 11 19 14 39 35 22 23 37 9 14 45 43 34 25 20 24 4 9 11 15 14 15 11 19 15 21 32 33 31 32 34 28 25 27 30 35 47 39 49 44 46 47 46 42
17 9 5 15 18 11 23 11 30 38 45 13 8 45 48 46 35 19 8 13 13 18 15 14 12 11 8 2 11 15 20 27 29 34 32 30 30 25 26 40 44 41 46 45 50 51 48 47 45
18 9 17 7 20 11 3 4 25 23 54 31 58 49 38 35 30 10 21 25 19 7 21 30 29 24 12 16 19 15 20 23 25 24 24 30 30 32 35 41 46 41 45 50 47 40 44 42 49
7 10 18 14 29 36 17 3 8 50 23 30 47 41 40 5 24 24 24 22 23 23 26 33 30 16 21 24 23 18 19 28 29 35 30 35 30 24 36 42 43 41 35 42 50 39 21 40 35
26 47 43 31 38 21 4 14 42 56 35 61 41 41 31 33 33 35 30 24 28 26 27 18 11 17 18 17 18 20 24 26 29 11 38 20 20 22 29 34 35 30 23 21 22 25 28 36 32
30 16 44 52 34 24 14 35 26 50 54 48 51 47 41 41 38 33 26 22 16 19 11 15 20 22 17 20 26 30 27 25 25 22 18 16 14 21 26 33 36 37 28 15 13 18 31 21 27
30 34 38 31 45 33 31 49 31 46 48 56 50 46 42 43 38 32 23 16 10 7 8 18 25 23 18 26 24 30 32 24 21 20 24 26 29 30 37 38 35 32 28 20 14 8 21 27 23
41 19 11 21 27 14 52 53 45 55 46 38 31 46 42 42 34 28 24 22 19 22 27 33 30 23 21 23 23 19 22 20 22 20 25 30 35 38 45 43 36 26 26 16 12 14 11 11 26
9 10 10 21 8 18 30 14 31 34 34 44 42 28 43 40 32 26 24 21 22 28 41 40 34 26 24 23 20 21 25 24 25 27 32 37 39 42 38 47 39 32 25 23 19 15 13 9 8
11 6 7 8 24 11 17 10 10 36 11 29 34 27 32 39 30 23 22 23 29 35 42 48 48 45 43 21 19 25 23 27 34 36 36 38 46 48 49 51 50 39 26 20 18 18 16 17 14
10 8 2 12 10 41 33 20 20 30 18 15 18 14 20 30 20 18 18 22 26 34 45 45 53 56 64 35 12 17 27 30 23 29 24 31 37 38 42 43 36 34 30 27 27 28 22 23 26
6 14 19 20 18 19 18 23 21 28 16 15 27 21 22 19 19 14 12 16 24 32 37 42 52 62 64 47 28 25 34 27 26 38 33 29 30 42 46 43 37 32 30 29 30 29 26 23 22
24 18 12 11 6 19 15 21 15 12 10 15 27 22 39 27 26 18 9 13 20 27 32 42 48 60 59 47 34 27 30 29 30 27 25 31 38 43 42 41 38 36 33 30 28 29 28 23 24
11 19 12 18 12 4 21 9 10 4 9 11 9 38 34 27 32 19 12 14 16 23 31 35 44 57 54 53 41 27 28 31 29 31 29 32 36 39 39 38 38 36 34 31 26 25 25 23 18
8 12 39 34 8 4 7 5 2 4 6 15 19 39 31 25 30 23 17 18 13 25 22 29 39 51 51 55 45 38 39 42 39 32 32 34 35 40 43 42 42 40 36 36 25 20 21 20 19
11 8 16 9 14 9 14 6 6 6 3 10 22 29 26 37 33 26 18 12 15 15 17 24 37 49 47 54 42 36 37 38 35 34 35 37 39 42 47 49 43 40 38 32 26 21 20 19 19
19 20 19 9 7 7 8 4 8 10 11 6 16 17 45 49 38 27 20 10 10 9 15 25 36 45 44 51 39 35 39 40 41 42 41 42 44 49 50 53 40 35 35 33 27 23 20 20 18
10 12 6 6 9 5 5 6 15 8 12 14 12 58 62 51 40 29 21 10 9 10 16 25 35 42 42 46 39 31 36 42 43 43 44 45 51 57 51 50 42 36 34 32 30 26 23 22 23
6 12 10 8 8 5 10 6 10 7 27 18 31 60 55 47 38 27 15 13 9 10 16 25 33 40 38 41 42 29 33 37 41 44 44 41 46 52 49 44 39 36 35 34 34 31 29 29 24
6 6 8 13 8 9 5 10 9 12 12 16 31 55 56 48 28 20 18 14 9 12 15 24 33 35 33 41 40 30 31 36 34 41 42 40 42 46 44 42 35 35 34 37 38 36 32 27 24
6 4 10 8 5 3 5 7 8 5 10 16 29 53 51 37 34 26 18 11 10 13 17 23 29 28 27 35 46 30 32 36 34 37 41 36 43 49 38 44 33 33 33 39 43 40 32 26 25
9 8 11 9 8 9 5 11 12 15 15 18 19 53 53 44 39 31 20 11 7 8 13 22 27 21 25 28 42 38 36 34 35 38 40 35 42 50 47 45 39 37 36 37 43 43 38 33 28
9 12 10 10 7 5 9 9 7 21 29 45 34 58 53 47 42 30 20 12 7 11 11 18 26 14 22 22 32 37 39 37 34 35 41 38 42 45 45 47 41 38 39 38 40 42 38 36 33
Wind_Direction_850mb
63 55 41 77 50 61 298 29 144 78 55 81 86 75 78 75 108 145 151 141 123 119 117 122 123 120 124 135 151 174 205 253 255 251 246 248 246 241 231 211 172 109 81 72 69 66 61 60 61
44 29 33 59 72 46 317 315 70 95 120 96 89 82 71 60 102 127 146 141 106 110 111 119 125 123 123 146 234 284 300 302 289 278 269 261 258 255 251 248 252 267 280 303 332 350 15 34 50
58 39 32 77 32 354 293 326 109 96 101 100 91 69 75 101 119 130 122 110 105 112 99 88 69 47 14 349 331 326 317 310 299 288 275 268 264 260 258 257 254 255 262 269 273 284 307 326 3
102 71 62 59 340 320 326 298 112 106 89 87 99 67 94 97 120 120 118 97 121 113 73 49 33 15 358 332 323 330 319 314 309 295 287 283 278 275 271 265 262 259 258 261 264 267 277 292 307
262 113 59 53 28 276 332 33 39 87 87 87 95 96 80 102 130 130 134 147 153 127 107 97 186 355 354 338 314 325 322 320 311 303 299 293 285 281 275 269 266 263 260 260 261 267 271 279 286
325 98 103 154 232 248 278 46 66 57 97 99 97 106 74 99 124 117 162 179 162 156 131 55 35 316 304 314 320 315 324 326 325 312 305 291 284 278 279 277 274 273 273 273 269 266 266 269 270
160 89 189 131 181 311 268 89 67 43 61 87 131 76 113 109 102 104 106 158 160 122 35 339 323 295 305 324 310 313 328 334 337 331 325 306 290 284 284 287 287 284 282 280 275 269 263 261 262
137 111 189 163 166 232 244 143 105 111 100 117 131 137 145 117 108 99 98 94 82 61 30 341 319 340 320 305 304 311 338 352 357 348 342 325 309 293 295 287 298 287 280 279 273 276 272 267 259
231 92 144 186 160 223 254 114 102 83 69 119 149 138 128 136 136 98 77 55 88 78 49 20 1 318 316 354 336 324 345 352 349 351 340 333 307 290 285 292 300 282 278 292 279 278 272 275 267
155 121 191 128 164 188 184 129 156 114 89 82 100 105 117 154 155 41 75 83 77 46 32 24 28 15 13 27 354 341 333 327 334 337 333 322 312 300 291 297 295 297 275 284 291 260 263 264 273
116 106 119 141 168 152 181 74 80 96 99 133 120 113 138 164 111 91 80 84 54 43 43 26 21 27 31 23 354 339 319 305 313 325 334 325 327 304 298 303 309 302 293 286 283 273 242 262 268
95 133 147 167 158 144 221 184 72 101 121 127 114 120 154 120 103 90 84 75 71 56 41 37 15 11 20 13 355 347 339 347 338 318 311 315 312 307 326 329 331 330 331 331 295 252 217 241 261
102 136 143 158 144 140 86 42 81 105 130 117 115 121 115 109 103 96 84 79 84 74 36 3 346 349 352 354 23 22 14 351 346 7 2 359 0 358 351 345 338 335 334 347 357 256 255 249 256
175 152 153 143 109 121 70 33 45 121 113 106 97 100 105 106 103 95 88 84 80 83 15 339 337 345 338 21 33 34 38 42 46 40 34 2 6 354 342 342 341 339 336 340 331 327 242 257 248
127 98 112 144 122 110 78 28 24 9 83 61 103 109 106 109 108 107 86 69 49 31 6 353 344 344 340 6 31 33 57 57 54 43 30 15 360 347 342 335 331 333 322 338 350 324 305 256 243
91 56 77 9 124 49 93 111 136 52 36 57 71 97 117 119 126 109 76 60 43 20 16 15 7 4 360 4 48 85 64 56 40 24 15 11 1 358 360 10 354 333 325 305 325 344 339 321 285
9 97 74 25 5 106 54 169 162 115 207 108 80 107 122 133 126 97 67 52 29 20 20 21 27 35 30 26 56 82 71 44 39 40 33 32 25 28 20 7 8 9 359 357 338 319 320 304 293
229 84 263 118 40 86 94 133 140 141 159 122 128 150 119 146 124 90 58 36 30 25 19 24 25 23 17 31 70 71 62 62 55 50 55 42 27 18 6 7 8 6 14 12 4 350 331 322 300
120 97 107 113 120 69 98 122 147 159 150 192 160 150 157 163 125 114 65 51 39 30 26 27 21 22 18 33 66 70 63 54 53 56 64 40 22 16 11 21 21 21 10 5 4 3 8 4 342
87 107 100 66 359 104 157 150 158 151 176 193 145 151 167 160 159 145 79 68 47 36 33 22 21 24 23 36 44 51 60 56 52 44 36 23 14 11 15 17 15 12 10 10 8 358 357 13 14
136 149 172 146 147 110 160 134 155 109 173 181 186 163 176 175 166 148 137 91 70 41 25 18 23 23 25 26 28 48 52 49 45 37 30 21 15 15 14 9 7 6 1 356 354 352 349 355 14
112 165 142 157 159 152 77 119 160 191 238 232 215 179 194 174 162 150 137 117 55 23 25 15 21 22 26 24 32 39 46 48 44 43 38 30 23 17 16 11 4 3 9 8 354 346 352 346 342
186 105 116 113 82 77 343 80 200 306 127 197 204 204 213 174 160 141 117 67 26 29 15 17 21 24 28 23 36 47 52 43 38 37 38 35 23 16 10 10 6 6 11 13 21 14 8 352 338
110 84 65 65 101 50 270 96 297 166 177 170 179 139 155 157 150 132 105 77 51 68 28 18 20 28 29 24 35 44 39 36 39 35 30 24 20 12 11 5 9 10 15 19 19 20 19 13 356
93 82 20 349 23 222 353 26 241 187 188 184 140 145 155 151 144 131 120 107 100 60 24 22 24 31 28 24 29 41 41 37 33 25 18 16 15 13 13 11 14 17 18 19 20 13 7 359 357
85 136 152 237 171 222 2 265 269 256 174 167 136 154 153 148 143 129 111 101 93 40 35 21 22 28 25 22 25 37 36 33 31 23 15 14 16 17 12 12 17 17 14 13 13 11 11 8 5
325 345 192 111 65 88 240 282 351 67 92 154 158 155 154 148 137 132 129 115 77 47 40 20 12 21 25 21 29 31 31 27 25 22 18 17 16 12 7 9 7 12 13 18 18 14 12 11 20
84 230 30 11 98 63 290 291 236 173 174 165 178 150 148 145 146 148 144 118 69 38 16 4 11 27 30 27 27 31 28 25 26 20 15 16 14 9 12 8 13 19 18 17 17 16 20 17 23
11 20 55 105 129 151 167 265 204 190 163 174 158 154 156 157 158 151 143 126 61 18 4 6 12 38 34 30 28 31 24 23 23 22 19 21 14 16 17 11 22 22 22 19 22 29 29 27 25
163 168 126 113 275 100 130 273 343 175 179 174 161 160 162 165 158 149 142 128 68 19 13 10 12 44 37 30 28 23 22 21 20 21 23 22 17 23 23 20 20 23 23 22 25 24 21 24 28